OPS 4682 DEB, 38460

Orbit data source: Space-Track

OPS 4682 DEB, 38460 is space debris in LEO originally from a launch on Sat, 03 Apr 1965 UTC launched from the Air Force Western Test Range (AFWTR). Debris objects in space refer to the collection of defunct objects orbiting the Earth. Examples of debris include non-operational satellites, rocket bodies, and fragments generated from explosions, collisions, or faulty payload assembly.

Loading next visibility...
Identifier
38460, 1965-027FR
Orbit
LEO
Country
Flag of USUS
Related business
Manufacturer
Unknown
Mission
Spacecraft
Bus & Motor
Unknown
Mass
Unknown
Launch date (UTC)
1965-04-03 (61 years ago)
Launch vehicle
Unknown
Launch site
Air Force Western Test Range (AFWTR)
Object type
Payload
Rocket body
Debris
Shape & HBR
Unknown shape, 0.1 m
Radar Cross Section
Medium (>0.1 m² and <1 m²)

Expand to show TLE details & history
Last TLE update: 2 days ago

TLE from 2 days ago
0 OPS 4682 DEB
1 38460U 65027FR  26206.69497778 -.00000052  00000-0 -21088-3 0  9995
2 38460  90.2347   3.3117 0031775 113.4690 258.8550 12.95213341760591
Epoch: 2026-07-25T16:40Z
TLE epoch observation values (Epoch: 2026-07-25T16:40:46.080Z)
Latitude
11.92412°
Longitude
169.66681°
Altitude
1,287.803 km
Speed
7.211 km/s
True Right ascension
00h 13m 02s
True Declination
11° 51' 35"
Sunlit
Object was in daylight at epoch
Visualization orbit readout
Latitude
Unknown
Longitude
Unknown
Altitude
Unknown
Speed
Unknown
Apparent Right ascension
Unknown
Apparent Declination
Unknown
Sunlit
N/A
Visualization observer readout
Local Sidereal Time
21:04:27
Azimuth
Unknown
Elevation
Unknown
Doppler factor
Unknown
Orbital elements
Apogee altitude
1,302.36 km
Perigee altitude
1,253.705 km
Semi-major axis
7,656.17 km
Eccentricity
0.00318
Inclination
90.2347°
RAAN
3.3117°
Arg. of periapsis
113.469°
True anomaly
258.49803°
Mean anomaly
258.855°
Eccentric anomaly
258.67649°
Mean motion
3.23986 °/min
Orbital period
111.12 mins
BSTAR
-0.00021088
Loading maneuver chart data...
Computing Atmospheric mass density...
Loading historical data...
Loading historical data...
Loading historical data...
Loading historical data...
Loading historical data...
Loading historical data...
Loading historical data...

Documentation

Showing up to 5 results
|